Date String (YYYY-MM-DD hh:mm:ss) UTC,Instrument flags,Ambient pressure (hPa),Sample flow (lpm),Bypass flow (lpm),Sample temperature (°C),Ambient temperature (°C),ASC tube jacket temperature (°C),LED temperature (°C),Box temperature (°C),Sample RH (%),Span deviation,Mass concentration (μg/m³),Mass concentration (μg/m³),Mass concentration (μg/m³)
DateTimeUTC,F1_M11,P_M11,Q1_M11,Q2_M11,T1_M11,T2_M11,T3_M11,T4_M11,T5_M11,U1_M11,ZSPAN_M11,X2_M11,X0_M11,X1_M11
2022-03-07 14:00:00,,0829.6,5.00,0.00,21.9,21.2,00.0,31.1,23.4,06.3,0000.0,0005.36,0007.48,0005.23
2022-03-07 14:01:00,,0829.7,5.00,0.00,21.9,21.6,00.0,31.1,23.5,06.3,0000.0,0005.37,0007.48,0005.23
2022-03-07 14:02:00,,0829.7,5.00,0.00,22.0,22.5,00.0,31.1,23.8,06.3,0000.0,0005.39,0007.47,0005.26
2022-03-07 14:03:00,,0829.7,5.01,0.00,22.2,23.2,00.0,31.2,24.1,06.3,0000.0,0005.40,0007.46,0005.28
2022-03-07 14:04:00,,0829.7,4.99,0.00,22.3,23.4,00.0,31.2,24.3,06.3,0000.0,0005.41,0007.57,0005.29
2022-03-07 14:05:00,,0829.7,5.01,0.00,22.4,23.0,00.0,31.2,24.2,06.3,0000.0,0005.42,0008.06,0005.30
2022-03-07 14:06:00,,0829.7,5.00,0.00,22.3,22.6,00.0,31.2,24.0,06.3,0000.0,0005.43,0008.06,0005.31
2022-03-07 14:07:00,,0829.6,4.99,0.00,22.3,22.3,00.0,31.2,23.9,06.3,0000.0,0005.42,0008.03,0005.30
2022-03-07 14:08:00,,0829.6,4.99,0.00,22.2,22.0,00.0,31.2,23.8,06.4,0000.0,0005.43,0008.06,0005.30
2022-03-07 14:09:00,,0829.7,5.01,0.00,22.1,21.7,00.0,31.2,23.7,06.5,0000.0,0005.47,0008.11,0005.32
2022-03-07 14:10:00,,0829.6,5.00,0.00,22.1,21.5,00.0,31.2,23.7,06.5,0000.0,0005.49,0008.16,0005.34
2022-03-07 14:11:00,,0829.6,5.01,0.00,22.0,21.4,00.0,31.1,23.6,06.6,0000.0,0005.52,0008.18,0005.36
2022-03-07 14:12:00,,0829.6,5.00,0.00,22.0,21.3,00.0,31.1,23.5,06.6,0000.0,0005.54,0008.19,0005.38
2022-03-07 14:13:00,,0829.6,4.99,0.00,22.0,22.0,00.0,31.1,23.7,06.6,0000.0,0005.54,0008.17,0005.40
2022-03-07 14:14:00,,0829.6,5.01,0.00,22.2,22.9,00.0,31.2,24.0,06.5,0000.0,0005.54,0008.16,0005.40
2022-03-07 14:15:00,,0829.7,4.99,0.00,22.3,23.4,00.0,31.2,24.2,06.5,0000.0,0005.55,0008.01,0005.40
2022-03-07 14:16:00,,0829.6,5.01,0.00,22.4,23.1,00.0,31.2,24.2,06.5,0000.0,0005.55,0007.53,0005.42
2022-03-07 14:17:00,,0829.6,5.00,0.00,22.4,22.7,00.0,31.2,24.1,06.5,0000.0,0005.57,0007.54,0005.43
2022-03-07 14:18:00,,0829.6,4.99,0.00,22.3,22.4,00.0,31.3,24.0,06.5,0000.0,0005.59,0007.57,0005.45
2022-03-07 14:19:00,,0829.6,5.01,0.00,22.3,22.1,00.0,31.2,23.9,06.6,0000.0,0005.59,0007.53,0005.47
2022-03-07 14:20:00,,0829.6,5.00,0.00,22.2,21.9,00.0,31.2,23.9,06.6,0000.0,0005.63,0007.60,0005.49
2022-03-07 14:21:00,,0829.7,5.00,0.00,22.2,21.7,00.0,31.2,23.8,06.6,0000.0,0005.64,0007.61,0005.51
2022-03-07 14:22:00,,0829.7,4.99,0.00,22.1,21.5,00.0,31.2,23.7,06.7,0000.0,0005.69,0007.64,0005.56
2022-03-07 14:23:00,,0829.7,5.00,0.00,22.0,21.3,00.0,31.2,23.5,06.8,0000.0,0005.76,0007.71,0005.63
2022-03-07 14:24:00,,0829.7,5.01,0.00,22.0,21.4,00.0,31.1,23.5,06.8,0000.0,0005.82,0007.76,0005.67
2022-03-07 14:25:00,,0829.8,5.00,0.00,22.1,22.3,00.0,31.2,23.8,06.8,0000.0,0005.91,0007.91,0005.74
2022-03-07 14:26:00,,0829.8,5.00,0.00,22.3,23.3,00.0,31.2,24.2,06.7,0000.0,0005.98,0007.99,0005.80
2022-03-07 14:27:00,,0829.8,4.99,0.00,22.4,23.5,00.0,31.3,24.3,06.7,0000.2,0006.04,0008.07,0005.86
2022-03-07 14:28:00,,0829.8,5.00,0.00,22.4,23.0,00.0,31.3,24.2,06.7,0000.9,0006.08,0008.09,0005.91
2022-03-07 14:29:00,,0829.8,5.00,0.00,22.3,22.6,00.0,31.3,24.0,06.7,0001.0,0006.12,0008.21,0005.94
2022-03-07 14:30:00,,0829.8,4.99,0.00,22.3,22.2,00.0,31.3,23.9,06.7,0000.7,0006.17,0008.39,0005.98
2022-03-07 14:31:00,,0829.8,5.01,0.00,22.2,21.9,00.0,31.3,23.8,06.7,0000.3,0006.19,0008.39,0006.00
2022-03-07 14:32:00,,0829.8,5.00,0.00,22.1,21.7,00.0,31.2,23.7,06.8,-000.1,0006.16,0008.32,0006.00
2022-03-07 14:33:00,,0829.8,5.00,0.00,22.1,21.5,00.0,31.2,23.6,06.8,-000.3,0006.16,0008.34,0005.99
2022-03-07 14:34:00,,0829.8,5.00,0.00,22.0,21.4,00.0,31.2,23.6,06.8,-000.7,0006.18,0008.37,0006.00
2022-03-07 14:35:00,,0829.8,5.01,0.00,22.0,21.2,00.0,31.2,23.4,06.8,-000.7,0006.23,0008.48,0006.03
2022-03-07 14:36:00,,0829.8,4.98,0.00,21.9,21.1,00.0,31.1,23.3,06.9,-001.0,0006.25,0008.45,0006.06
2022-03-07 14:37:00,,0829.8,5.02,0.00,21.9,22.0,00.0,31.1,23.6,06.8,-000.9,0006.29,0008.49,0006.09
2022-03-07 14:38:00,,0829.8,5.01,0.00,22.1,23.0,00.0,31.2,24.0,06.8,-000.4,0006.34,0008.55,0006.11
2022-03-07 14:39:00,,0829.8,4.99,0.00,22.3,23.4,00.0,31.2,24.2,06.7,-000.0,0006.39,0008.63,0006.14
2022-03-07 14:40:00,,0829.8,5.00,0.00,22.3,23.0,00.0,31.2,24.1,06.7,0000.2,0006.44,0008.84,0006.18
2022-03-07 14:41:00,,0829.8,5.00,0.00,22.2,22.6,00.0,31.2,23.9,06.7,0000.1,0006.49,0009.11,0006.22
2022-03-07 14:42:00,,0829.8,4.99,0.00,22.2,22.2,00.0,31.2,23.8,06.7,0001.2,0006.51,0009.10,0006.25
2022-03-07 14:43:00,,0829.8,5.02,0.00,22.1,21.9,00.0,31.2,23.7,06.7,0001.9,0006.59,0009.23,0006.30
2022-03-07 14:44:00,,0829.8,5.00,0.00,22.1,21.7,00.0,31.2,23.6,06.8,0002.0,0006.63,0009.29,0006.34
2022-03-07 14:45:00,,0829.8,5.01,0.00,22.0,21.5,00.0,31.2,23.5,06.8,0002.2,0006.66,0009.33,0006.36
2022-03-07 14:46:00,,0829.8,5.00,0.00,21.9,21.2,00.0,31.1,23.4,06.8,0002.3,0006.68,0009.37,0006.38
2022-03-07 14:47:00,,0829.8,5.00,0.00,21.9,21.1,00.0,31.1,23.3,06.8,0002.1,0006.68,0009.41,0006.38
2022-03-07 14:48:00,,0829.8,5.00,0.00,21.8,21.0,00.0,31.1,23.3,06.8,0001.6,0006.71,0009.52,0006.40
2022-03-07 14:49:00,,0829.8,4.99,0.00,21.8,21.7,00.0,31.1,23.5,06.8,0001.6,0006.74,0009.63,0006.42
2022-03-07 14:50:00,,0829.8,5.02,0.00,22.0,22.8,00.0,31.1,23.9,06.8,0001.4,0006.74,0009.65,0006.43
2022-03-07 14:51:00,,0829.8,4.99,0.00,22.2,23.1,00.0,31.1,24.1,06.7,0001.2,0006.76,0009.60,0006.42
2022-03-07 14:52:00,,0829.9,5.00,0.00,22.2,22.7,00.0,31.1,24.0,06.7,0001.7,0006.75,0009.25,0006.43
2022-03-07 14:53:00,,0829.9,5.00,0.00,22.2,22.4,00.0,31.1,23.9,06.7,0000.8,0006.77,0009.30,0006.45
2022-03-07 14:54:00,,0829.9,4.99,0.00,22.2,22.2,00.0,31.1,23.9,06.7,0000.5,0006.79,0009.33,0006.47
2022-03-07 14:55:00,,0829.9,5.02,0.00,22.1,22.0,00.0,31.1,23.8,06.8,0000.4,0006.78,0009.29,0006.47
2022-03-07 14:56:00,,0829.9,4.98,0.00,22.1,21.9,00.0,31.1,23.8,06.9,0000.5,0006.77,0009.26,0006.47
2022-03-07 14:57:00,,0829.9,5.02,0.00,22.1,21.7,00.0,31.1,23.7,06.8,0000.7,0006.77,0009.27,0006.48
2022-03-07 14:58:00,,0829.9,5.00,0.00,22.1,21.6,00.0,31.1,23.7,06.7,0001.2,0006.79,0009.25,0006.50
2022-03-07 14:59:00,,0829.9,5.00,0.00,22.0,21.5,00.0,31.1,23.6,06.7,0001.7,0006.76,0009.13,0006.49
